Location: Shepherdstown, WV
(39.4326°N, 77.8042°W)
Time: 20:18:29
(UTC-04:00)

Vanguard 1 Rocket - Pass Details

Date: 13 August 2021
Orbit: 650 x 4226 km, 34.3° (Epoch: 19 September)

Event Time Altitude Azimuth Distance (km) Brightness Sun altitude
Rises 09:47:00 0° 257° (WSW) 8,405 11.9 38.1°
Reaches altitude 10° 09:52:49 10° 257° (WSW) 7,431 11.7 39.2°
Maximum altitude 10:18:35 75° 178° (S) 3,505 11.2 43.9°
Drops below altitude 10° 10:34:05 10° 96° (E) 4,846 12.0 46.7°
Sets 10:36:59 0° 95° (E) 5,491 12.0 47.2°
